• In Uzbekistan
  • List of Countries
  • For 7 days
  • Water Temperature
  • Weather Map
  • Weather Widgets
  • user-avatar
    Login

    Hourly Weather Canberra

    Today, 27 February, Thursday

    Time Temperature Precipitation Wind Pressure Humidity
    00:00 +15°C° 0 mm 2 mps 705 mmHg 82%
    01:00 +15°C° 0 mm 2 mps 706 mmHg 84%
    02:00 +14°C° 0 mm 2 mps 705 mmHg 85%
    03:00 +14°C° 0 mm 2 mps 705 mmHg 87%
    04:00 +13°C° 0 mm 1 mps 705 mmHg 91%
    05:00 +13°C° 0 mm 1 mps 705 mmHg 89%
    06:00 +14°C° 0 mm 2 mps 705 mmHg 88%
    07:00 +14°C° 0 mm 2 mps 706 mmHg 86%
    08:00 +16°C° 0 mm 2 mps 706 mmHg 70%
    09:00 +18°C° 0 mm 3 mps 706 mmHg 54%
    10:00 +20°C° 0 mm 3 mps 706 mmHg 38%
    11:00 +22°C° 0 mm 3 mps 706 mmHg 32%
    12:00 +23°C° 0 mm 4 mps 705 mmHg 26%
    13:00 +26°C° 0 mm 4 mps 705 mmHg 20%
    14:00 +26°C° 0 mm 4 mps 704 mmHg 19%
    15:00 +26°C° 0 mm 5 mps 704 mmHg 18%
    16:00 +26°C° 0 mm 5 mps 703 mmHg 18%
    17:00 +23°C° 0 mm 4 mps 703 mmHg 20%
    18:00 +21°C° 0 mm 4 mps 703 mmHg 23%
    19:00 +18°C° 0 mm 3 mps 704 mmHg 26%
    20:00 +17°C° 0 mm 3 mps 704 mmHg 30%
    21:00 +15°C° 0 mm 2 mps 704 mmHg 34%
    22:00 +14°C° 0 mm 2 mps 704 mmHg 38%
    23:00 +13°C° 0 mm 1 mps 704 mmHg 40%

    Tomorrow, 28 February, Friday

    Time Temperature Precipitation Wind Pressure Humidity
    00:00 +12°C° 0 mm 1 mps 704 mmHg 43%
    01:00 +12°C° 0 mm 1 mps 704 mmHg 46%
    02:00 +11°C° 0 mm 1 mps 704 mmHg 47%
    03:00 +11°C° 0 mm 1 mps 704 mmHg 48%
    04:00 +10°C° 0 mm 1 mps 703 mmHg 50%
    05:00 +11°C° 0 mm 1 mps 704 mmHg 49%
    06:00 +11°C° 0 mm 0 mps 705 mmHg 49%
    07:00 +12°C° 0 mm 0 mps 705 mmHg 49%
    08:00 +16°C° 0 mm 1 mps 706 mmHg 43%
    09:00 +20°C° 0 mm 1 mps 707 mmHg 37%
    10:00 +24°C° 0 mm 1 mps 707 mmHg 31%
    11:00 +25°C° 0 mm 1 mps 707 mmHg 29%
    12:00 +27°C° 0 mm 1 mps 707 mmHg 27%
    13:00 +29°C° 0 mm 1 mps 707 mmHg 25%
    14:00 +28°C° 0 mm 1 mps 707 mmHg 26%
    15:00 +28°C° 0 mm 2 mps 707 mmHg 28%
    16:00 +28°C° 0 mm 2 mps 707 mmHg 29%
    17:00 +24°C° 0 mm 2 mps 707 mmHg 44%
    18:00 +19°C° 0 mm 3 mps 707 mmHg 60%
    19:00 +15°C° 0 mm 4 mps 708 mmHg 75%
    20:00 +16°C° 0 mm 3 mps 708 mmHg 77%
    21:00 +14°C° 0 mm 3 mps 709 mmHg 79%
    22:00 +14°C° 0 mm 3 mps 710 mmHg 81%
    23:00 +14°C° 0 mm 3 mps 710 mmHg 81%

    Day after tomorrow, 29 February, Saturday

    Time Temperature Precipitation Wind Pressure Humidity
    00:00 +15°C° 0 mm 2 mps 710 mmHg 81%
    01:00 +15°C° 0 mm 2 mps 710 mmHg 81%
    02:00 +15°C° 0 mm 2 mps 710 mmHg 84%
    03:00 +14°C° 0 mm 2 mps 709 mmHg 86%
    04:00 +14°C° 0 mm 1 mps 709 mmHg 88%
    05:00 +14°C° 0 mm 1 mps 710 mmHg 87%
    06:00 +14°C° 0 mm 1 mps 710 mmHg 86%
    07:00 +14°C° 0 mm 1 mps 710 mmHg 85%
    08:00 +18°C° 0 mm 1 mps 710 mmHg 74%
    09:00 +20°C° 0 mm 1 mps 710 mmHg 64%
    10:00 +23°C° 0 mm 1 mps 710 mmHg 53%
    11:00 +24°C° 0 mm 1 mps 710 mmHg 46%
    12:00 +26°C° 0 mm 2 mps 710 mmHg 40%
    13:00 +28°C° 0 mm 2 mps 709 mmHg 33%
    14:00 +28°C° 0 mm 2 mps 709 mmHg 32%
    15:00 +28°C° 0 mm 2 mps 708 mmHg 31%
    16:00 +29°C° 0 mm 2 mps 708 mmHg 30%
    17:00 +26°C° 0 mm 2 mps 708 mmHg 36%
    18:00 +24°C° 0 mm 1 mps 708 mmHg 42%
    19:00 +22°C° 0 mm 1 mps 708 mmHg 49%
    20:00 +21°C° 0 mm 1 mps 708 mmHg 61%
    21:00 +19°C° 0 mm 2 mps 708 mmHg 74%
    22:00 +17°C° 0 mm 2 mps 708 mmHg 87%
    23:00 +17°C° 0 mm 2 mps 708 mmHg 89%

    1 March, Sunday

    Time Temperature Precipitation Wind Pressure Humidity
    00:00 +18°C° 0 mm 1 mps 708 mmHg 92%
    01:00 +16°C° 0 mm 1 mps 708 mmHg 94%
    02:00 +16°C° 0 mm 1 mps 707 mmHg 95%
    03:00 +16°C° 0 mm 1 mps 707 mmHg 95%
    04:00 +14°C° 0 mm 0 mps 707 mmHg 96%
    05:00 +15°C° 0 mm 0 mps 707 mmHg 93%
    06:00 +16°C° 0 mm 0 mps 707 mmHg 91%
    07:00 +16°C° 0 mm 0 mps 708 mmHg 88%
    08:00 +21°C° 0 mm 1 mps 708 mmHg 75%
    09:00 +24°C° 0 mm 2 mps 708 mmHg 62%
    10:00 +27°C° 0 mm 3 mps 708 mmHg 49%
    11:00 +28°C° 0 mm 4 mps 707 mmHg 45%
    12:00 +29°C° 0 mm 4 mps 707 mmHg 40%
    13:00 +30°C° 0 mm 5 mps 707 mmHg 36%
    14:00 +30°C° 0 mm 5 mps 706 mmHg 35%
    15:00 +30°C° 0 mm 5 mps 705 mmHg 34%
    16:00 +30°C° 0 mm 5 mps 705 mmHg 33%
    17:00 +28°C° 0 mm 4 mps 705 mmHg 37%
    18:00 +26°C° 0 mm 3 mps 705 mmHg 40%
    19:00 +24°C° 0 mm 2 mps 705 mmHg 44%
    20:00 +23°C° 0 mm 1 mps 705 mmHg 45%
    21:00 +23°C° 0 mm 1 mps 705 mmHg 46%
    22:00 +20°C° 0 mm 0 mps 705 mmHg 47%
    23:00 +19°C° 0 mm 0 mps 705 mmHg 48%

    2 March, Monday

    Time Temperature Precipitation Wind Pressure Humidity
    00:00 +18°C° 0 mm 0 mps 705 mmHg 49%
    01:00 +17°C° 0 mm 0 mps 705 mmHg 50%
    02:00 +17°C° 0 mm 0 mps 705 mmHg 51%
    03:00 +19°C° 0 mm 1 mps 705 mmHg 51%
    04:00 +19°C° 0 mm 1 mps 705 mmHg 51%
    05:00 +18°C° 0 mm 1 mps 706 mmHg 57%
    06:00 +17°C° 0 mm 2 mps 707 mmHg 63%
    07:00 +17°C° 0 mm 2 mps 707 mmHg 69%
    08:00 +19°C° 0 mm 2 mps 708 mmHg 63%
    09:00 +21°C° 0 mm 2 mps 708 mmHg 56%
    10:00 +24°C° 0 mm 2 mps 708 mmHg 50%
    11:00 +25°C° 0 mm 2 mps 708 mmHg 47%
    12:00 +26°C° 0 mm 2 mps 708 mmHg 45%
    13:00 +27°C° 0 mm 2 mps 708 mmHg 42%
    14:00 +26°C° 0 mm 2 mps 708 mmHg 45%
    15:00 +25°C° 0 mm 3 mps 708 mmHg 49%
    16:00 +24°C° 0 mm 3 mps 707 mmHg 53%
    17:00 +21°C° 0.2 mm 3 mps 708 mmHg 63%
    18:00 +19°C° 0.2 mm 3 mps 708 mmHg 74%
    19:00 +17°C° 0.2 mm 4 mps 708 mmHg 85%
    20:00 +17°C° 0 mm 3 mps 709 mmHg 85%
    21:00 +17°C° 0 mm 3 mps 709 mmHg 85%
    22:00 +16°C° 0 mm 3 mps 710 mmHg 86%
    23:00 +16°C° 0 mm 3 mps 710 mmHg 86%

    3 March, Tuesday

    Time Temperature Precipitation Wind Pressure Humidity
    00:00 +16°C° 0 mm 3 mps 709 mmHg 87%
    01:00 +16°C° 0 mm 2 mps 709 mmHg 87%
    02:00 +16°C° 0 mm 2 mps 710 mmHg 88%
    03:00 +16°C° 0 mm 2 mps 710 mmHg 88%
    04:00 +16°C° 0 mm 2 mps 710 mmHg 89%
    05:00 +16°C° 0 mm 3 mps 710 mmHg 88%
    06:00 +16°C° 0 mm 3 mps 710 mmHg 86%
    07:00 +16°C° 0 mm 3 mps 711 mmHg 85%
    08:00 +17°C° 0 mm 4 mps 711 mmHg 80%
    09:00 +18°C° 0 mm 4 mps 711 mmHg 74%
    10:00 +19°C° 0 mm 4 mps 712 mmHg 69%
    11:00 +20°C° 0 mm 4 mps 711 mmHg 66%
    12:00 +21°C° 0 mm 4 mps 711 mmHg 63%
    13:00 +21°C° 0 mm 5 mps 711 mmHg 60%
    14:00 +21°C° 0 mm 5 mps 711 mmHg 63%
    15:00 +20°C° 0 mm 5 mps 711 mmHg 66%
    16:00 +20°C° 0 mm 5 mps 710 mmHg 70%
    17:00 +19°C° 0 mm 5 mps 711 mmHg 74%
    18:00 +17°C° 0 mm 5 mps 711 mmHg 78%
    19:00 +16°C° 0 mm 5 mps 711 mmHg 81%
    20:00 +17°C° 0 mm 4 mps 712 mmHg 83%
    21:00 +17°C° 0 mm 4 mps 712 mmHg 84%
    22:00 +15°C° 0 mm 4 mps 712 mmHg 85%
    23:00 +15°C° 0 mm 4 mps 712 mmHg 85%
    Show more